Location: Hyderabad
(17.3833°N, 78.4667°E)
Time: 17:35:34
(UTC+05:30)

Daily predictions for brighter satellites

Satellite Brightness Start Highest point End
(mag) Time Altitude Azimuth Time Altitude Azimuth Time Altitude Azimuth
BREEZE-M DEB (TANK) 4.1 18:24:54 10° NW 18:29:00 80° SW 18:45:32 10° SE
Delta 198 3.2 18:47:08 10° WSW 18:50:49 57° SSE 18:54:20 10° E
Meteor 1-24 Rocket 4.0 18:53:11 10° N 18:58:38 49° E 19:04:16 10° SSE
RESURS DK-1 3.4 18:56:40 10° NNE 19:00:06 26° ENE 19:03:33 10° SE
Cosmos 1470 4.4 18:59:22 10° SE 19:01:35 15° E 19:03:49 10° NE
Resurs 01 Rocket 3.1 18:59:58 10° ESE 19:02:49 17° ENE 19:05:40 10° NNE
Ariane H10+ 4.2 18:59:33 10° SW 19:05:04 37° SSE 19:18:45 14° ESE
SJ-6B 2.8 19:08:06 10° SSE 19:11:44 49° ENE 19:15:19 10° N
COSMOS 2406 3.7 19:06:08 10° NNW 19:11:47 67° WSW 19:17:23 10° S
Cosmos 372 Rocket 3.8 19:08:28 10° S 19:13:33 76° ESE 19:18:38 10° NNE
H-2A R/B 3.8 19:14:33 15° ESE 19:16:54 25° ENE 19:20:05 10° NNE
CZ-3C R/B 0.1 19:17:46 10° WNW 19:20:17 49° N 19:21:05 28° ENE
HJ-1C 3.7 19:19:10 10° SSE 19:22:22 43° ENE 19:25:36 10° N
GPS 2-12 Rocket1 3.4 19:19:20 10° WSW 19:23:57 51° SSE 19:26:33 24° E
ISO 4.4 19:02:27 10° W 19:28:06 36° SSW 19:32:06 16° SE
SWIFT 2.6 19:24:38 10° W 19:28:52 60° SSW 19:31:07 26° SE
Tiangong 1 3.4 19:29:40 10° NNE 19:30:21 11° NNE 19:30:21 11° NNE
Cosmos 2098 Rocket 4.2 19:25:36 10° S 19:32:16 82° E 19:39:49 10° N
Spot 2 Rocket 3.8 19:32:03 14° SE 19:36:09 44° ENE 19:40:59 10° N
In-Cosmos 22 3.9 19:32:38 10° N 19:37:53 75° E 19:43:10 10° S
FENGYUN 3A 3.6 19:33:14 10° SSE 19:38:39 83° ENE 19:44:03 10° N
Cosmos 1758 4.2 19:35:26 10° SSW 19:39:16 49° W 19:43:07 10° N
Resurs 1-3 3.9 19:37:45 30° ESE 19:39:16 41° ENE 19:43:23 10° N
SL-27 R/B 3.3 19:37:55 10° NNW 19:41:28 52° WSW 19:45:00 10° S
Cosmos 1271 Rocket 2.6 19:38:12 10° S 19:42:08 66° E 19:46:06 10° NNE
ASTRO E2 3.3 19:39:19 10° SW 19:43:03 37° SSE 19:43:11 37° SE
H-2A R/B (2) 3.2 19:42:19 10° NW 19:45:18 28° NNE 19:47:31 23° ENE
Cosmos 1953 3.5 19:42:04 10° SSW 19:45:57 45° W 19:49:51 10° N
ASC 2 Rocket 4.1 19:38:23 10° WSW 19:47:13 89° S 19:50:15 32° ENE
CZ-4C R/B 3.0 19:44:25 10° S 19:47:07 26° SSE 19:47:07 26° SSE
GMS 1 Rocket 4.0 19:45:09 10° WSW 19:49:11 75° SSE 19:49:40 63° E
Cosmos 2016 Rocket 4.3 19:45:40 10° SSE 19:51:27 40° E 19:57:10 10° NNE
Milstar 3 3.8 19:48:45 10° SSW 19:54:11 25° SSE 19:54:32 24° SE
Meteor 1-21 Rocket 4.3 19:48:34 10° N 19:54:20 56° E 19:57:11 29° SSE
TIMED 4.4 19:50:15 10° SSW 19:54:36 88° W 19:58:58 10° NNE
Cosmos 1833 Rocket 3.9 19:50:51 10° NNE 19:54:13 25° NE 19:54:13 25° NE
ATLAS 5 CENTAUR R/B 4.4 19:53:38 10° WSW 19:56:49 19° WNW 20:00:07 10° NNW
ALOS 3.5 19:57:57 10° S 20:02:21 42° W 20:06:45 10° NNW
Helios 1B rocket 2.9 20:01:41 10° N 20:05:43 58° WNW 20:09:43 10° SSW
SeaSat 1 2.3 20:06:34 63° SE 20:07:19 79° ENE 20:12:14 10° NNW
Cosmos 2100 Rocket 4.1 20:03:19 10° S 20:09:35 79° W 20:15:56 10° N
Delta 7925 Rocket 3.6 20:06:00 10° W 20:11:40 63° NNW 20:12:25 55° NNE
CZ-2D R/B 4.2 20:16:24 43° NW 20:16:24 43° NW 20:19:11 10° NNW
Cosmos 1076 Rocket 3.9 20:11:51 10° NNW 20:16:00 60° W 20:16:15 58° WSW
Mugunghwa Rocket 4.3 20:11:16 10° W 20:17:25 55° NNW 20:19:10 42° NNE
Aurora 2 Rocket 4.0 20:10:44 10° WNW 20:17:35 40° N 20:18:45 36° NNE
Delta R/B 4.4 20:10:56 10° WNW 20:18:50 43° SW 20:18:50 43° SW
Cosmos 1048 Rocket 4.4 20:15:52 10° N 20:19:39 49° N 20:19:39 49° N
USA 215 4.4 20:20:52 10° NNE 20:26:52 41° NW 20:32:53 10° WSW
GP-B 4.3 20:29:29 34° SW 20:30:31 40° W 20:34:41 10° NNW
Meteor 1-16 Rocket 4.5 20:33:28 64° NNW 20:33:28 64° NNW 20:38:25 10° N
Cosmos 1802 Rocket 4.3 20:26:52 10° SSW 20:32:54 62° W 20:38:58 10° N
Delta 2 Rocket 3.8 20:26:13 10° WNW 20:32:59 84° WSW 20:32:59 84° WSW
Cosmos 2082 Rocket 2.8 20:29:12 10° NNW 20:33:11 47° N 20:33:11 47° N
Resurs 01 Rocket 3.8 20:36:49 16° SW 20:39:01 23° W 20:42:32 10° NW
